When you browse on this site, cookies collect data to enhance your experience and personalize the content and advertising you see.
Visit our Privacy Policy to learn more. By continuing to use the site, you agree to this use of cookies and data.

Hourly Weather Trowbridge

Today, 13 August, Thursday

Time Temperature Precipitation Wind Pressure Humidity
00:00 +21°C° 0 mm 1 mps 755 mmHg 86%
01:00 +21°C° 0 mm 1 mps 755 mmHg 86%
02:00 +21°C° 0 mm 1 mps 755 mmHg 86%
03:00 +21°C° 0 mm 1 mps 755 mmHg 87%
04:00 +21°C° 0 mm 1 mps 755 mmHg 88%
05:00 +20°C° 0 mm 2 mps 755 mmHg 90%
06:00 +20°C° 0 mm 2 mps 755 mmHg 91%
07:00 +21°C° 0 mm 2 mps 755 mmHg 86%
08:00 +23°C° 0 mm 2 mps 755 mmHg 81%
09:00 +24°C° 0 mm 3 mps 755 mmHg 77%
10:00 +26°C° 0 mm 3 mps 755 mmHg 73%
11:00 +27°C° 0 mm 3 mps 755 mmHg 70%
12:00 +28°C° 0 mm 3 mps 755 mmHg 66%
13:00 +27°C° 0.6 mm 4 mps 755 mmHg 71%
14:00 +26°C° 0.6 mm 4 mps 755 mmHg 75%
15:00 +25°C° 0.6 mm 4 mps 755 mmHg 80%
16:00 +25°C° 0.8 mm 3 mps 755 mmHg 80%
17:00 +25°C° 0.8 mm 2 mps 755 mmHg 79%
18:00 +26°C° 0.8 mm 2 mps 755 mmHg 79%
19:00 +24°C° 0.9 mm 2 mps 755 mmHg 83%
20:00 +23°C° 0.9 mm 2 mps 755 mmHg 87%
21:00 +21°C° 0.9 mm 2 mps 755 mmHg 92%
22:00 +21°C° 0.3 mm 3 mps 755 mmHg 93%
23:00 +20°C° 0.3 mm 3 mps 755 mmHg 94%

Tomorrow, 14 August, Friday

Time Temperature Precipitation Wind Pressure Humidity
00:00 +20°C° 0.3 mm 3 mps 755 mmHg 96%
01:00 +19°C° 0 mm 4 mps 755 mmHg 95%
02:00 +19°C° 0 mm 4 mps 755 mmHg 95%
03:00 +19°C° 0 mm 4 mps 755 mmHg 94%
04:00 +19°C° 0.2 mm 3 mps 755 mmHg 94%
05:00 +19°C° 0.2 mm 3 mps 755 mmHg 94%
06:00 +19°C° 0.2 mm 3 mps 755 mmHg 94%
07:00 +19°C° 0.2 mm 3 mps 755 mmHg 92%
08:00 +20°C° 0.2 mm 3 mps 755 mmHg 91%
09:00 +20°C° 0.2 mm 3 mps 755 mmHg 89%
10:00 +20°C° 0.4 mm 3 mps 756 mmHg 89%
11:00 +21°C° 0.4 mm 3 mps 756 mmHg 88%
12:00 +21°C° 0.4 mm 3 mps 756 mmHg 87%
13:00 +21°C° 0.3 mm 2 mps 756 mmHg 88%
14:00 +21°C° 0.3 mm 2 mps 756 mmHg 88%
15:00 +21°C° 0.3 mm 2 mps 756 mmHg 89%
16:00 +21°C° 0.1 mm 2 mps 756 mmHg 89%
17:00 +21°C° 0.1 mm 2 mps 756 mmHg 90%
18:00 +22°C° 0.1 mm 1 mps 756 mmHg 90%
19:00 +21°C° 0.4 mm 2 mps 756 mmHg 91%
20:00 +20°C° 0.4 mm 2 mps 757 mmHg 92%
21:00 +20°C° 0.4 mm 2 mps 757 mmHg 92%
22:00 +19°C° 0.2 mm 2 mps 757 mmHg 93%
23:00 +19°C° 0.2 mm 3 mps 757 mmHg 93%

Day after tomorrow, 15 August, Saturday

Time Temperature Precipitation Wind Pressure Humidity
00:00 +18°C° 0.2 mm 3 mps 757 mmHg 93%
01:00 +18°C° 0.2 mm 3 mps 757 mmHg 94%
02:00 +18°C° 0.2 mm 3 mps 757 mmHg 94%
03:00 +17°C° 0.2 mm 3 mps 757 mmHg 95%
04:00 +17°C° 0.1 mm 3 mps 757 mmHg 95%
05:00 +17°C° 0.1 mm 3 mps 757 mmHg 94%
06:00 +17°C° 0.1 mm 4 mps 757 mmHg 94%
07:00 +17°C° 0.1 mm 4 mps 757 mmHg 93%
08:00 +18°C° 0.1 mm 4 mps 757 mmHg 92%
09:00 +18°C° 0.1 mm 4 mps 758 mmHg 91%
10:00 +18°C° 0.1 mm 4 mps 758 mmHg 91%
11:00 +19°C° 0.1 mm 3 mps 757 mmHg 90%
12:00 +19°C° 0.1 mm 3 mps 757 mmHg 89%
13:00 +19°C° 0 mm 3 mps 757 mmHg 88%
14:00 +20°C° 0 mm 3 mps 757 mmHg 87%
15:00 +20°C° 0 mm 3 mps 757 mmHg 86%
16:00 +20°C° 0 mm 3 mps 757 mmHg 86%
17:00 +20°C° 0 mm 2 mps 757 mmHg 85%
18:00 +21°C° 0 mm 2 mps 756 mmHg 85%
19:00 +20°C° 0.1 mm 3 mps 756 mmHg 87%
20:00 +19°C° 0.1 mm 3 mps 756 mmHg 89%
21:00 +19°C° 0.1 mm 3 mps 756 mmHg 90%
22:00 +18°C° 0.5 mm 3 mps 756 mmHg 92%
23:00 +18°C° 0.5 mm 3 mps 756 mmHg 94%

16 August, Sunday

Time Temperature Precipitation Wind Pressure Humidity
00:00 +17°C° 0.5 mm 3 mps 756 mmHg 95%
01:00 +18°C° 1.4 mm 3 mps 755 mmHg 95%
02:00 +18°C° 1.4 mm 3 mps 755 mmHg 96%
03:00 +18°C° 1.4 mm 3 mps 755 mmHg 96%
04:00 +18°C° 0.6 mm 3 mps 754 mmHg 96%
05:00 +18°C° 0.6 mm 3 mps 754 mmHg 96%
06:00 +17°C° 0.6 mm 3 mps 754 mmHg 96%
07:00 +18°C° 0 mm 3 mps 754 mmHg 94%
08:00 +19°C° 0 mm 3 mps 754 mmHg 93%
09:00 +19°C° 0 mm 2 mps 754 mmHg 91%
10:00 +20°C° 0.6 mm 2 mps 754 mmHg 88%
11:00 +21°C° 0.6 mm 2 mps 754 mmHg 84%
12:00 +23°C° 0.6 mm 2 mps 754 mmHg 80%
13:00 +24°C° 2.8 mm 2 mps 753 mmHg 79%
14:00 +24°C° 2.8 mm 2 mps 753 mmHg 79%
15:00 +24°C° 2.8 mm 2 mps 753 mmHg 78%
16:00 +24°C° 2.2 mm 2 mps 753 mmHg 79%
17:00 +23°C° 2.2 mm 2 mps 752 mmHg 81%
18:00 +23°C° 2.2 mm 2 mps 752 mmHg 82%
19:00 +20°C° 0.2 mm 2 mps 752 mmHg 86%
20:00 +19°C° 0.2 mm 2 mps 752 mmHg 89%
21:00 +17°C° 0.2 mm 2 mps 753 mmHg 92%
22:00 +17°C° 0 mm 2 mps 752 mmHg 92%
23:00 +18°C° 0 mm 1 mps 752 mmHg 93%

17 August, Monday

Time Temperature Precipitation Wind Pressure Humidity
00:00 +16°C° 0 mm 1 mps 752 mmHg 94%
01:00 +16°C° 0 mm 1 mps 752 mmHg 94%
02:00 +16°C° 0 mm 1 mps 752 mmHg 95%
03:00 +16°C° 0 mm 1 mps 752 mmHg 95%
04:00 +16°C° 0 mm 1 mps 752 mmHg 95%
05:00 +16°C° 0 mm 1 mps 752 mmHg 95%
06:00 +18°C° 0 mm 1 mps 752 mmHg 95%
07:00 +19°C° 0 mm 1 mps 752 mmHg 90%
08:00 +20°C° 0 mm 1 mps 752 mmHg 86%
09:00 +20°C° 0 mm 1 mps 753 mmHg 82%
10:00 +20°C° 0.1 mm 2 mps 753 mmHg 79%
11:00 +20°C° 0.1 mm 2 mps 753 mmHg 77%
12:00 +21°C° 0.1 mm 2 mps 753 mmHg 74%
13:00 +21°C° 0.4 mm 2 mps 753 mmHg 73%
14:00 +22°C° 0.4 mm 3 mps 753 mmHg 71%
15:00 +22°C° 0.4 mm 3 mps 753 mmHg 70%
16:00 +21°C° 0.2 mm 3 mps 753 mmHg 72%
17:00 +21°C° 0.2 mm 3 mps 753 mmHg 74%
18:00 +20°C° 0.2 mm 3 mps 753 mmHg 77%
19:00 +19°C° 0.1 mm 3 mps 753 mmHg 82%
20:00 +18°C° 0.1 mm 3 mps 754 mmHg 88%
21:00 +16°C° 0.1 mm 3 mps 754 mmHg 93%
22:00 +16°C° 0.1 mm 3 mps 754 mmHg 94%
23:00 +16°C° 0.1 mm 3 mps 754 mmHg 95%

18 August, Tuesday

Time Temperature Precipitation Wind Pressure Humidity
00:00 +16°C° 0.1 mm 3 mps 754 mmHg 96%
01:00 +16°C° 0 mm 2 mps 754 mmHg 96%
02:00 +16°C° 0 mm 2 mps 754 mmHg 96%
03:00 +17°C° 0 mm 2 mps 754 mmHg 96%
04:00 +17°C° 0 mm 2 mps 755 mmHg 95%
05:00 +17°C° 0 mm 2 mps 755 mmHg 94%
06:00 +18°C° 0 mm 1 mps 755 mmHg 93%
07:00 +18°C° 0 mm 1 mps 756 mmHg 89%
08:00 +18°C° 0 mm 2 mps 756 mmHg 85%
09:00 +19°C° 0 mm 2 mps 756 mmHg 81%
10:00 +20°C° 0.1 mm 2 mps 756 mmHg 79%
11:00 +21°C° 0.1 mm 3 mps 757 mmHg 76%
12:00 +22°C° 0.1 mm 3 mps 757 mmHg 73%
13:00 +22°C° 0.1 mm 4 mps 757 mmHg 72%
14:00 +22°C° 0.1 mm 4 mps 757 mmHg 71%
15:00 +22°C° 0.1 mm 4 mps 757 mmHg 71%
16:00 +22°C° 0.1 mm 4 mps 757 mmHg 73%
17:00 +21°C° 0.1 mm 3 mps 757 mmHg 76%
18:00 +21°C° 0.1 mm 3 mps 757 mmHg 79%
19:00 +19°C° 0 mm 3 mps 757 mmHg 84%
20:00 +18°C° 0 mm 2 mps 758 mmHg 89%
21:00 +17°C° 0 mm 2 mps 758 mmHg 94%
22:00 +16°C° 0 mm 2 mps 758 mmHg 94%
23:00 +16°C° 0 mm 1 mps 758 mmHg 94%
Show more